Time,TemperatureF,DewpointF,PressureIn,WindDirection,WindDirectionDegrees,WindSpeedMPH,WindSpeedGustMPH,Humidity,HourlyPrecipIn,Conditions,Clouds,dailyrainin,SoftwareType,DateUTC
2013-02-17 00:01:00,44.2,22.0,29.89,SSW,203,0.0,0.0,41,0.00,CLR,,0.00,WeatherDisplay:10.37,2013-02-17 08:01:00,
2013-02-17 00:06:00,44.1,20.1,29.89,SSW,202,0.0,0.0,38,0.00,CLR,,0.00,WeatherDisplay:10.37,2013-02-17 08:06:00,
2013-02-17 00:11:00,43.9,19.3,29.89,SSW,203,0.0,0.0,37,0.00,CLR,,0.00,WeatherDisplay:10.37,2013-02-17 08:11:00,
2013-02-17 00:16:00,43.9,19.9,29.89,SSW,202,0.0,0.0,38,0.00,CLR,,0.00,WeatherDisplay:10.37,2013-02-17 08:16:00,
2013-02-17 00:21:00,44.2,15.4,29.89,SSW,202,0.0,0.0,31,0.00,CLR,,0.00,WeatherDisplay:10.37,2013-02-17 08:21:00,
2013-02-17 00:26:00,44.6,16.5,29.89,SSW,202,0.0,0.0,32,0.00,CLR,,0.00,WeatherDisplay:10.37,2013-02-17 08:26:00,
2013-02-17 00:31:00,44.8,16.0,29.88,SSW,202,0.0,0.0,31,0.00,CLR,,0.00,WeatherDisplay:10.37,2013-02-17 08:31:00,
2013-02-17 00:36:00,45.2,14.0,29.88,SSW,202,0.0,0.0,28,0.00,CLR,,0.00,WeatherDisplay:10.37,2013-02-17 08:36:00,
2013-02-17 00:41:00,46.0,15.5,29.88,SSW,202,0.0,0.0,29,0.00,CLR,,0.00,WeatherDisplay:10.37,2013-02-17 08:41:00,
2013-02-17 00:46:00,46.1,15.6,29.88,SSW,202,0.0,0.0,29,0.00,CLR,,0.00,WeatherDisplay:10.37,2013-02-17 08:46:00,
2013-02-17 00:51:00,46.0,15.5,29.88,SSW,202,0.0,0.0,29,0.00,CLR,,0.00,WeatherDisplay:10.37,2013-02-17 08:51:00,
2013-02-17 00:56:00,45.7,15.2,29.88,SSW,202,0.0,0.0,29,0.00,CLR,,0.00,WeatherDisplay:10.37,2013-02-17 08:56:00,
2013-02-17 01:01:00,45.7,16.0,29.88,SSW,202,0.0,0.0,30,0.00,CLR,,0.00,WeatherDisplay:10.37,2013-02-17 09:01:00,
2013-02-17 01:06:00,45.4,16.5,29.88,SSW,203,0.0,0.0,31,0.00,CLR,,0.00,WeatherDisplay:10.37,2013-02-17 09:06:00,
2013-02-17 01:11:00,45.2,16.3,29.88,SSW,202,0.0,0.0,31,0.00,CLR,,0.00,WeatherDisplay:10.37,2013-02-17 09:11:00,
2013-02-17 01:16:00,45.1,17.0,29.88,SSW,202,0.0,0.0,32,0.00,CLR,,0.00,WeatherDisplay:10.37,2013-02-17 09:16:00,
2013-02-17 01:21:00,44.9,16.8,29.88,SSW,202,0.0,0.0,32,0.00,CLR,,0.00,WeatherDisplay:10.37,2013-02-17 09:21:00,
2013-02-17 01:26:00,44.9,17.5,29.88,SSW,202,0.0,0.0,33,0.00,CLR,,0.00,WeatherDisplay:10.37,2013-02-17 09:26:00,
2013-02-17 01:31:00,44.8,18.1,29.88,SSW,202,0.0,0.0,34,0.00,CLR,,0.00,WeatherDisplay:10.37,2013-02-17 09:31:00,
2013-02-17 01:36:00,44.5,16.4,29.87,SSW,202,0.0,0.0,32,0.00,CLR,,0.00,WeatherDisplay:10.37,2013-02-17 09:36:00,
2013-02-17 01:41:00,44.2,19.5,29.87,SSW,202,0.0,0.0,37,0.00,CLR,,0.00,WeatherDisplay:10.37,2013-02-17 09:41:00,
2013-02-17 01:46:00,43.8,20.4,29.87,SSW,202,0.0,0.0,39,0.00,CLR,,0.00,WeatherDisplay:10.37,2013-02-17 09:46:00,
2013-02-17 01:51:00,43.5,20.2,29.86,SSW,202,0.0,0.0,39,0.00,CLR,,0.00,WeatherDisplay:10.37,2013-02-17 09:51:00,
2013-02-17 01:56:00,43.1,19.8,29.86,SSW,202,0.0,0.0,39,0.00,CLR,,0.00,WeatherDisplay:10.37,2013-02-17 09:56:00,
2013-02-17 02:01:00,42.6,20.5,29.86,SSW,202,0.0,0.0,41,0.00,CLR,,0.00,WeatherDisplay:10.37,2013-02-17 10:01:00,
2013-02-17 02:06:00,42.3,21.4,29.86,SSW,202,0.0,0.0,43,0.00,CLR,,0.00,WeatherDisplay:10.37,2013-02-17 10:06:00,
2013-02-17 02:11:00,42.1,21.2,29.86,SSW,202,0.0,0.0,43,0.00,CLR,,0.00,WeatherDisplay:10.37,2013-02-17 10:11:00,
2013-02-17 02:16:00,41.8,22.5,29.86,SSW,202,0.0,0.0,46,0.00,CLR,,0.00,WeatherDisplay:10.37,2013-02-17 10:16:00,
2013-02-17 02:21:00,41.6,22.3,29.86,SSW,202,0.0,0.0,46,0.00,CLR,,0.00,WeatherDisplay:10.37,2013-02-17 10:21:00,
2013-02-17 02:26:00,41.3,21.0,29.85,SSW,202,0.0,0.0,44,0.00,CLR,,0.00,WeatherDisplay:10.37,2013-02-17 10:26:00,
2013-02-17 02:31:00,41.2,21.4,29.85,SSW,202,0.0,0.0,45,0.00,CLR,,0.00,WeatherDisplay:10.37,2013-02-17 10:31:00,
2013-02-17 02:36:00,40.9,22.7,29.85,SSW,202,0.0,0.0,48,0.00,CLR,,0.00,WeatherDisplay:10.37,2013-02-17 10:36:00,
2013-02-17 02:41:00,40.8,22.1,29.85,SSW,202,0.0,0.0,47,0.00,CLR,,0.00,WeatherDisplay:10.37,2013-02-17 10:41:00,
2013-02-17 02:46:00,40.5,22.8,29.85,SSW,202,0.0,0.0,49,0.00,CLR,,0.00,WeatherDisplay:10.37,2013-02-17 10:46:00,
2013-02-17 02:51:00,40.3,22.1,29.85,SSW,202,0.0,0.0,48,0.00,CLR,,0.00,WeatherDisplay:10.37,2013-02-17 10:51:00,
2013-02-17 02:56:00,40.3,21.6,29.85,SSW,202,0.0,0.0,47,0.00,CLR,,0.00,WeatherDisplay:10.37,2013-02-17 10:56:00,
2013-02-17 03:01:00,40.6,21.9,29.85,SSW,202,0.0,0.0,47,0.00,CLR,,0.00,WeatherDisplay:10.37,2013-02-17 11:01:00,
2013-02-17 03:06:00,40.6,21.4,29.85,SSW,202,0.0,0.0,46,0.00,CLR,,0.00,WeatherDisplay:10.37,2013-02-17 11:06:00,
2013-02-17 03:11:00,40.5,21.8,29.85,SSW,202,0.0,0.0,47,0.00,CLR,,0.00,WeatherDisplay:10.37,2013-02-17 11:11:00,
2013-02-17 03:16:00,40.3,21.6,29.86,SSW,202,0.0,0.0,47,0.00,CLR,,0.00,WeatherDisplay:10.37,2013-02-17 11:16:00,
2013-02-17 03:21:00,40.2,21.0,29.86,SSW,202,0.0,0.0,46,0.00,CLR,,0.00,WeatherDisplay:10.37,2013-02-17 11:21:00,
2013-02-17 03:26:00,40.1,21.5,29.86,SSW,202,0.0,0.0,47,0.00,CLR,,0.00,WeatherDisplay:10.37,2013-02-17 11:26:00,
2013-02-17 03:31:00,39.9,20.8,29.86,SSW,202,0.0,0.0,46,0.00,CLR,,0.00,WeatherDisplay:10.37,2013-02-17 11:31:00,
2013-02-17 03:36:00,39.9,20.3,29.86,SSW,203,0.0,0.0,45,0.00,CLR,,0.00,WeatherDisplay:10.37,2013-02-17 11:36:00,
2013-02-17 03:41:00,39.9,20.8,29.86,SSW,202,0.0,0.0,46,0.00,CLR,,0.00,WeatherDisplay:10.37,2013-02-17 11:41:00,
2013-02-17 03:46:00,39.8,20.7,29.86,SSW,202,0.0,0.0,46,0.00,CLR,,0.00,WeatherDisplay:10.37,2013-02-17 11:46:00,
2013-02-17 03:51:00,39.9,21.3,29.86,SSW,202,0.0,0.0,47,0.00,CLR,,0.00,WeatherDisplay:10.37,2013-02-17 11:51:00,
2013-02-17 03:56:00,39.8,21.2,29.85,SSW,202,0.0,0.0,47,0.00,CLR,,0.00,WeatherDisplay:10.37,2013-02-17 11:56:00,
2013-02-17 04:01:00,39.6,21.0,29.86,SSW,202,0.0,0.0,47,0.00,CLR,,0.00,WeatherDisplay:10.37,2013-02-17 12:01:00,
2013-02-17 04:06:00,39.5,21.9,29.86,SSW,202,0.0,0.0,49,0.00,CLR,,0.00,WeatherDisplay:10.37,2013-02-17 12:06:00,
2013-02-17 04:11:00,39.3,21.7,29.86,SSW,202,0.0,0.0,49,0.00,CLR,,0.00,WeatherDisplay:10.37,2013-02-17 12:11:00,
2013-02-17 04:16:00,39.2,21.1,29.86,SSW,202,0.0,0.0,48,0.00,CLR,,0.00,WeatherDisplay:10.37,2013-02-17 12:16:00,
2013-02-17 04:21:00,39.2,20.6,29.86,SSW,202,0.0,0.0,47,0.00,CLR,,0.00,WeatherDisplay:10.37,2013-02-17 12:21:00,
2013-02-17 04:26:00,39.2,20.6,29.86,SSW,202,0.0,0.0,47,0.00,CLR,,0.00,WeatherDisplay:10.37,2013-02-17 12:26:00,
2013-02-17 04:31:00,39.1,21.5,29.86,SSW,202,0.0,0.0,49,0.00,CLR,,0.00,WeatherDisplay:10.37,2013-02-17 12:31:00,
2013-02-17 04:36:00,38.8,21.3,29.86,SSW,202,0.0,0.0,49,0.00,CLR,,0.00,WeatherDisplay:10.37,2013-02-17 12:36:00,
2013-02-17 04:41:00,38.8,20.8,29.86,SSW,202,0.0,0.0,48,0.00,CLR,,0.00,WeatherDisplay:10.37,2013-02-17 12:41:00,
2013-02-17 04:46:00,38.8,21.7,29.86,SSW,202,0.0,0.0,50,0.00,CLR,,0.00,WeatherDisplay:10.37,2013-02-17 12:46:00,
2013-02-17 04:51:00,38.8,21.3,29.86,SSW,202,0.0,0.0,49,0.00,CLR,,0.00,WeatherDisplay:10.37,2013-02-17 12:51:00,
2013-02-17 04:56:00,38.8,21.7,29.87,SSW,202,0.0,0.0,50,0.00,CLR,,0.00,WeatherDisplay:10.37,2013-02-17 12:56:00,
2013-02-17 05:01:00,38.8,22.2,29.87,SSW,202,0.0,0.0,51,0.00,CLR,,0.00,WeatherDisplay:10.37,2013-02-17 13:01:00,
2013-02-17 05:06:00,38.5,21.9,29.88,SSW,202,0.0,0.0,51,0.00,CLR,,0.00,WeatherDisplay:10.37,2013-02-17 13:06:00,
2013-02-17 05:11:00,38.3,21.7,29.88,SSW,202,0.0,0.0,51,0.00,CLR,,0.00,WeatherDisplay:10.37,2013-02-17 13:11:00,
2013-02-17 05:16:00,38.2,22.1,29.89,SSW,202,0.0,0.0,52,0.00,CLR,,0.00,WeatherDisplay:10.37,2013-02-17 13:16:00,
2013-02-17 05:21:00,38.0,22.8,29.89,SSW,202,0.0,0.0,54,0.00,CLR,,0.00,WeatherDisplay:10.37,2013-02-17 13:21:00,
2013-02-17 05:26:00,37.8,22.2,29.89,SSW,202,0.0,0.0,53,0.00,CLR,,0.00,WeatherDisplay:10.37,2013-02-17 13:26:00,
2013-02-17 05:31:00,37.8,22.6,29.89,SSW,202,0.0,0.0,54,0.00,CLR,,0.00,WeatherDisplay:10.37,2013-02-17 13:31:00,
2013-02-17 05:36:00,37.6,22.0,29.89,SSW,202,0.0,0.0,53,0.00,CLR,,0.00,WeatherDisplay:10.37,2013-02-17 13:36:00,
2013-02-17 05:41:00,37.6,22.9,29.89,SSW,202,0.0,0.0,55,0.00,CLR,,0.00,WeatherDisplay:10.37,2013-02-17 13:41:00,
2013-02-17 05:46:00,37.6,23.7,29.89,SSW,202,0.0,0.0,57,0.00,CLR,,0.00,WeatherDisplay:10.37,2013-02-17 13:46:00,
2013-02-17 05:51:00,37.6,23.3,29.89,SSW,202,0.0,0.0,56,0.00,CLR,,0.00,WeatherDisplay:10.37,2013-02-17 13:51:00,
2013-02-17 05:56:00,37.6,22.9,29.89,SSW,202,0.0,0.0,55,0.00,CLR,,0.00,WeatherDisplay:10.37,2013-02-17 13:56:00,
2013-02-17 06:01:00,37.6,22.0,29.89,SSW,202,0.0,0.0,53,0.00,CLR,,0.00,WeatherDisplay:10.37,2013-02-17 14:01:00,
2013-02-17 06:06:00,37.6,22.9,29.90,SSW,202,0.0,0.0,55,0.00,CLR,,0.00,WeatherDisplay:10.37,2013-02-17 14:06:00,
2013-02-17 06:11:00,37.3,23.4,29.90,SSW,202,0.0,0.0,57,0.00,CLR,,0.00,WeatherDisplay:10.37,2013-02-17 14:11:00,
2013-02-17 06:16:00,37.0,23.2,29.90,SSW,202,0.0,0.0,57,0.00,CLR,,0.00,WeatherDisplay:10.37,2013-02-17 14:16:00,
2013-02-17 06:21:00,36.8,23.0,29.90,SSW,202,0.0,0.0,57,0.00,CLR,,0.00,WeatherDisplay:10.37,2013-02-17 14:21:00,
2013-02-17 06:26:00,36.5,22.7,29.90,SSW,202,0.0,0.0,57,0.00,CLR,,0.00,WeatherDisplay:10.37,2013-02-17 14:26:00,
2013-02-17 06:31:00,36.3,22.5,29.90,SSW,202,0.0,0.0,57,0.00,CLR,,0.00,WeatherDisplay:10.37,2013-02-17 14:31:00,
2013-02-17 06:36:00,36.5,22.7,29.90,SSW,202,0.0,0.0,57,0.00,CLR,,0.00,WeatherDisplay:10.37,2013-02-17 14:36:00,
2013-02-17 06:41:00,36.5,22.3,29.90,SSW,202,0.0,0.0,56,0.00,CLR,,0.00,WeatherDisplay:10.37,2013-02-17 14:41:00,
2013-02-17 06:46:00,36.5,22.7,29.90,SSW,202,0.0,0.0,57,0.00,CLR,,0.00,WeatherDisplay:10.37,2013-02-17 14:46:00,
2013-02-17 06:51:00,36.5,23.1,29.90,SSW,202,0.0,0.0,58,0.00,CLR,,0.00,WeatherDisplay:10.37,2013-02-17 14:51:00,
2013-02-17 06:56:00,37.0,22.7,29.90,SSW,202,0.0,0.0,56,0.00,CLR,,0.00,WeatherDisplay:10.37,2013-02-17 14:56:00,
2013-02-17 07:01:00,37.5,23.6,29.90,SSW,202,0.0,0.0,57,0.00,CLR,,0.00,WeatherDisplay:10.37,2013-02-17 15:01:00,
2013-02-17 07:06:00,38.2,23.0,29.90,SSW,202,0.0,0.0,54,0.00,CLR,,0.00,WeatherDisplay:10.37,2013-02-17 15:06:00,
2013-02-17 07:11:00,38.9,21.8,29.90,SSW,202,0.0,0.0,50,0.00,CLR,,0.00,WeatherDisplay:10.37,2013-02-17 15:11:00,
2013-02-17 07:16:00,39.5,23.8,29.90,SSW,202,0.0,0.0,53,0.00,CLR,,0.00,WeatherDisplay:10.37,2013-02-17 15:16:00,
2013-02-17 07:21:00,39.8,24.5,29.90,SSW,202,0.0,0.0,54,0.00,CLR,,0.00,WeatherDisplay:10.37,2013-02-17 15:21:00,
2013-02-17 07:26:00,39.9,24.1,29.89,SSW,203,0.0,0.0,53,0.00,CLR,,0.00,WeatherDisplay:10.37,2013-02-17 15:26:00,
2013-02-17 07:31:00,39.9,24.6,29.89,SSW,202,0.0,0.0,54,0.00,CLR,,0.00,WeatherDisplay:10.37,2013-02-17 15:31:00,
2013-02-17 07:36:00,40.8,24.5,29.90,SSW,203,0.0,1.2,52,0.00,CLR,,0.00,WeatherDisplay:10.37,2013-02-17 15:36:00,
2013-02-17 07:41:00,42.3,25.9,29.90,SSW,203,0.0,0.0,52,0.00,CLR,,0.00,WeatherDisplay:10.37,2013-02-17 15:41:00,
2013-02-17 07:46:00,43.6,26.6,29.89,SSW,203,0.0,0.0,51,0.00,CLR,,0.00,WeatherDisplay:10.37,2013-02-17 15:46:00,
2013-02-17 07:51:00,45.4,26.8,29.88,SSW,203,0.0,0.0,48,0.00,CLR,,0.00,WeatherDisplay:10.37,2013-02-17 15:51:00,
2013-02-17 07:56:00,46.8,28.1,29.88,SSW,203,0.0,0.0,48,0.00,CLR,,0.00,WeatherDisplay:10.37,2013-02-17 15:56:00,
2013-02-17 08:01:00,48.5,27.6,29.88,SSW,203,0.0,0.0,44,0.00,CLR,,0.00,WeatherDisplay:10.37,2013-02-17 16:01:00,
2013-02-17 08:06:00,49.8,28.2,29.88,SSW,203,0.0,0.0,43,0.00,CLR,,0.00,WeatherDisplay:10.37,2013-02-17 16:06:00,
2013-02-17 08:11:00,51.4,26.6,29.88,SSW,203,0.0,0.0,38,0.00,CLR,,0.00,WeatherDisplay:10.37,2013-02-17 16:11:00,
2013-02-17 08:16:00,53.5,27.8,29.87,SSW,203,0.0,0.0,37,0.00,CLR,,0.00,WeatherDisplay:10.37,2013-02-17 16:16:00,
2013-02-17 08:21:00,55.0,26.4,29.87,SSW,203,0.0,0.0,33,0.00,CLR,,0.00,WeatherDisplay:10.37,2013-02-17 16:21:00,
2013-02-17 08:26:00,56.5,24.6,29.87,SSW,203,0.0,0.0,29,0.00,CLR,,0.00,WeatherDisplay:10.37,2013-02-17 16:26:00,
2013-02-17 08:31:00,57.2,25.2,29.87,SSW,203,0.1,1.2,29,0.00,CLR,,0.00,WeatherDisplay:10.37,2013-02-17 16:31:00,
2013-02-17 08:36:00,57.5,25.5,29.87,SSW,203,0.0,0.0,29,0.00,CLR,,0.00,WeatherDisplay:10.37,2013-02-17 16:36:00,
2013-02-17 08:41:00,58.4,25.4,29.86,SSW,203,0.0,0.0,28,0.00,CLR,,0.00,WeatherDisplay:10.37,2013-02-17 16:41:00,
2013-02-17 08:46:00,59.6,25.5,29.86,SSW,203,0.0,0.0,27,0.00,CLR,,0.00,WeatherDisplay:10.37,2013-02-17 16:46:00,
2013-02-17 08:51:00,61.0,24.9,29.86,SSW,203,0.0,0.0,25,0.00,CLR,,0.00,WeatherDisplay:10.37,2013-02-17 16:51:00,
2013-02-17 08:56:00,61.8,24.6,29.86,SSW,203,0.0,1.2,24,0.00,CLR,,0.00,WeatherDisplay:10.37,2013-02-17 16:56:00,
2013-02-17 09:01:00,62.3,24.0,29.86,SSW,203,0.1,1.2,23,0.00,CLR,,0.00,WeatherDisplay:10.37,2013-02-17 17:01:00,
2013-02-17 09:06:00,62.1,24.8,29.87,SSW,203,0.2,1.2,24,0.00,CLR,,0.00,WeatherDisplay:10.37,2013-02-17 17:06:00,
2013-02-17 09:11:00,61.8,24.6,29.87,SSW,203,0.0,1.2,24,0.00,CLR,,0.00,WeatherDisplay:10.37,2013-02-17 17:11:00,
2013-02-17 09:16:00,61.0,25.8,29.87,WSW,255,0.0,2.3,26,0.00,CLR,,0.00,WeatherDisplay:10.37,2013-02-17 17:16:00,
2013-02-17 09:21:00,61.2,26.0,29.87,WSW,255,0.0,0.0,26,0.00,CLR,,0.00,WeatherDisplay:10.37,2013-02-17 17:21:00,
2013-02-17 09:26:00,61.6,26.3,29.87,WSW,255,0.1,1.0,26,0.00,CLR,,0.00,WeatherDisplay:10.37,2013-02-17 17:26:00,
2013-02-17 09:31:00,62.4,26.1,29.87,WSW,255,0.0,1.2,25,0.00,CLR,,0.00,WeatherDisplay:10.37,2013-02-17 17:31:00,
2013-02-17 09:36:00,62.9,22.3,29.87,WSW,255,0.0,0.0,21,0.00,CLR,,0.00,WeatherDisplay:10.37,2013-02-17 17:36:00,
2013-02-17 09:41:00,63.5,28.0,29.87,West,262,0.4,2.3,26,0.00,CLR,,0.00,WeatherDisplay:10.37,2013-02-17 17:41:00,
2013-02-17 09:46:00,63.9,29.2,29.88,WNW,298,0.6,2.3,27,0.00,CLR,,0.00,WeatherDisplay:10.37,2013-02-17 17:46:00,
2013-02-17 09:51:00,63.9,26.4,29.87,SSW,210,1.2,3.0,24,0.00,CLR,,0.00,WeatherDisplay:10.37,2013-02-17 17:51:00,
2013-02-17 09:56:00,63.4,24.9,29.88,SW,214,1.2,5.0,23,0.00,CLR,,0.00,WeatherDisplay:10.37,2013-02-17 17:56:00,
2013-02-17 10:01:00,63.1,25.7,29.88,WNW,292,1.2,4.0,24,0.00,CLR,,0.00,WeatherDisplay:10.37,2013-02-17 18:01:00,
2013-02-17 10:06:00,63.2,24.7,29.88,SSW,207,3.6,6.0,23,0.00,CLR,,0.00,WeatherDisplay:10.37,2013-02-17 18:06:00,
2013-02-17 10:11:00,63.4,25.9,29.88,WSW,249,1.8,4.0,24,0.00,CLR,,0.00,WeatherDisplay:10.37,2013-02-17 18:11:00,
2013-02-17 10:16:00,63.9,24.3,29.88,SSW,213,1.5,5.0,22,0.00,CLR,,0.00,WeatherDisplay:10.37,2013-02-17 18:16:00,
2013-02-17 10:21:00,64.0,23.2,29.88,SW,236,1.1,6.9,21,0.00,CLR,,0.00,WeatherDisplay:10.37,2013-02-17 18:21:00,
2013-02-17 10:26:00,64.2,24.5,29.88,SW,216,0.2,4.6,22,0.00,CLR,,0.00,WeatherDisplay:10.37,2013-02-17 18:26:00,
2013-02-17 10:31:00,64.8,26.1,29.88,WSW,254,0.3,2.3,23,0.00,CLR,,0.00,WeatherDisplay:10.37,2013-02-17 18:31:00,
2013-02-17 10:36:00,65.3,24.3,29.88,SSW,213,1.2,5.0,21,0.00,CLR,,0.00,WeatherDisplay:10.37,2013-02-17 18:36:00,
2013-02-17 10:41:00,65.6,25.7,29.88,SW,216,1.0,3.5,22,0.00,CLR,,0.00,WeatherDisplay:10.37,2013-02-17 18:41:00,
2013-02-17 10:46:00,66.1,27.2,29.88,SW,231,0.3,2.0,23,0.00,CLR,,0.00,WeatherDisplay:10.37,2013-02-17 18:46:00,
2013-02-17 10:51:00,66.8,25.6,29.88,WSW,240,2.0,5.8,21,0.00,CLR,,0.00,WeatherDisplay:10.37,2013-02-17 18:51:00,
2013-02-17 10:56:00,66.6,25.4,29.88,SSW,195,1.2,4.0,21,0.00,CLR,,0.00,WeatherDisplay:10.37,2013-02-17 18:56:00,
2013-02-17 11:01:00,66.4,24.1,29.88,SW,224,4.5,10.4,20,0.00,CLR,,0.00,WeatherDisplay:10.37,2013-02-17 19:01:00,
2013-02-17 11:06:00,66.3,25.2,29.88,SW,214,1.4,6.0,21,0.00,CLR,,0.00,WeatherDisplay:10.37,2013-02-17 19:06:00,
2013-02-17 11:11:00,66.4,26.4,29.88,SSW,193,0.2,5.8,22,0.00,CLR,,0.00,WeatherDisplay:10.37,2013-02-17 19:11:00,
2013-02-17 11:16:00,67.1,26.9,29.87,SW,214,1.0,4.0,22,0.00,CLR,,0.00,WeatherDisplay:10.37,2013-02-17 19:16:00,
2013-02-17 11:21:00,67.8,24.0,29.87,SW,229,0.5,2.3,19,0.00,CLR,,0.00,WeatherDisplay:10.37,2013-02-17 19:21:00,
2013-02-17 11:26:00,67.6,23.8,29.86,SSW,198,0.8,6.9,19,0.00,CLR,,0.00,WeatherDisplay:10.37,2013-02-17 19:26:00,
2013-02-17 11:31:00,67.3,24.8,29.86,SSW,208,0.0,2.0,20,0.00,CLR,,0.00,WeatherDisplay:10.37,2013-02-17 19:31:00,
2013-02-17 11:36:00,67.4,30.3,29.86,West,269,0.1,3.5,25,0.00,CLR,,0.00,WeatherDisplay:10.37,2013-02-17 19:36:00,
2013-02-17 11:41:00,67.8,25.2,29.86,SSW,207,0.3,3.5,20,0.00,CLR,,0.00,WeatherDisplay:10.37,2013-02-17 19:41:00,
2013-02-17 11:46:00,68.4,24.5,29.86,WSW,239,0.7,2.3,19,0.00,CLR,,0.00,WeatherDisplay:10.37,2013-02-17 19:46:00,
2013-02-17 11:53:00,68.9,28.5,29.86,WSW,250,0.1,3.5,22,0.00,CLR,,0.00,WeatherDisplay:10.37,2013-02-17 19:53:00,
2013-02-17 11:58:00,69.8,25.6,29.85,SW,223,0.2,1.2,19,0.00,CLR,,0.00,WeatherDisplay:10.37,2013-02-17 19:58:00,
2013-02-17 12:03:00,69.9,24.4,29.85,SW,214,5.2,11.5,18,0.00,CLR,,0.00,WeatherDisplay:10.37,2013-02-17 20:03:00,
2013-02-17 12:08:00,69.4,26.6,29.85,SSW,206,2.2,6.0,20,0.00,CLR,,0.00,WeatherDisplay:10.37,2013-02-17 20:08:00,
2013-02-17 12:13:00,69.1,26.3,29.85,SSW,208,0.1,4.6,20,0.00,CLR,,0.00,WeatherDisplay:10.37,2013-02-17 20:13:00,
2013-02-17 12:18:00,69.6,30.1,29.85,SW,218,1.3,3.5,23,0.00,CLR,,0.00,WeatherDisplay:10.37,2013-02-17 20:18:00,
2013-02-17 12:23:00,69.9,27.0,29.84,SW,226,0.3,1.2,20,0.00,CLR,,0.00,WeatherDisplay:10.37,2013-02-17 20:23:00,
2013-02-17 12:28:00,69.8,26.9,29.84,SW,223,0.6,3.5,20,0.00,CLR,,0.00,WeatherDisplay:10.37,2013-02-17 20:28:00,
2013-02-17 12:33:00,69.6,26.7,29.84,West,265,0.7,3.5,20,0.00,CLR,,0.00,WeatherDisplay:10.37,2013-02-17 20:33:00,
2013-02-17 12:38:00,69.8,26.9,29.84,SSW,211,2.3,6.9,20,0.00,CLR,,0.00,WeatherDisplay:10.37,2013-02-17 20:38:00,
2013-02-17 12:43:00,69.3,26.5,29.84,SSW,210,4.4,11.5,20,0.00,CLR,,0.00,WeatherDisplay:10.37,2013-02-17 20:43:00,
2013-02-17 12:48:00,69.1,26.3,29.84,SSW,210,0.6,3.5,20,0.00,CLR,,0.00,WeatherDisplay:10.37,2013-02-17 20:48:00,
2013-02-17 12:53:00,69.4,28.9,29.84,SW,222,0.3,3.5,22,0.00,CLR,,0.00,WeatherDisplay:10.37,2013-02-17 20:53:00,
2013-02-17 12:58:00,69.3,26.5,29.83,WSW,245,1.0,3.5,20,0.00,CLR,,0.00,WeatherDisplay:10.37,2013-02-17 20:58:00,
2013-02-17 13:03:00,69.6,25.5,29.83,SSW,212,0.8,4.6,19,0.00,CLR,,0.00,WeatherDisplay:10.37,2013-02-17 21:03:00,
2013-02-17 13:09:00,69.8,26.9,29.83,SSW,209,0.2,2.3,20,0.00,CLR,,0.00,WeatherDisplay:10.37,2013-02-17 21:09:00,
2013-02-17 13:14:00,70.3,26.1,29.83,South,176,1.6,3.5,19,0.00,CLR,,0.00,WeatherDisplay:10.37,2013-02-17 21:14:00,
2013-02-17 13:19:00,70.6,29.9,29.83,SW,232,0.4,5.8,22,0.00,CLR,,0.00,WeatherDisplay:10.37,2013-02-17 21:19:00,
2013-02-17 13:24:00,70.9,27.8,29.83,SW,223,0.6,2.3,20,0.00,CLR,,0.00,WeatherDisplay:10.37,2013-02-17 21:24:00,
2013-02-17 13:29:00,71.1,25.4,29.83,SSW,200,2.7,6.9,18,0.00,CLR,,0.00,WeatherDisplay:10.37,2013-02-17 21:29:00,
2013-02-17 13:34:00,70.9,29.0,29.83,SW,221,2.5,7.0,21,0.00,CLR,,0.00,WeatherDisplay:10.37,2013-02-17 21:34:00,
2013-02-17 13:39:00,70.8,28.9,29.82,SW,214,0.2,1.2,21,0.00,CLR,,0.00,WeatherDisplay:10.37,2013-02-17 21:39:00,
2013-02-17 13:44:00,70.9,26.5,29.82,SW,214,2.5,4.0,19,0.00,CLR,,0.00,WeatherDisplay:10.37,2013-02-17 21:44:00,
2013-02-17 13:49:00,71.1,28.0,29.81,South,186,1.0,4.0,20,0.00,CLR,,0.00,WeatherDisplay:10.37,2013-02-17 21:49:00,
2013-02-17 13:54:00,71.1,31.4,29.81,SW,216,0.4,2.3,23,0.00,CLR,,0.00,WeatherDisplay:10.37,2013-02-17 21:54:00,
2013-02-17 13:59:00,71.3,28.1,29.81,South,186,0.3,2.3,20,0.00,CLR,,0.00,WeatherDisplay:10.37,2013-02-17 21:59:00,
2013-02-17 14:04:00,71.5,29.5,29.81,SW,217,2.2,7.0,21,0.00,CLR,,0.00,WeatherDisplay:10.37,2013-02-17 22:04:00,
2013-02-17 14:09:00,71.3,28.1,29.82,SW,216,1.5,7.0,20,0.00,CLR,,0.00,WeatherDisplay:10.37,2013-02-17 22:09:00,
2013-02-17 14:14:00,71.1,28.0,29.81,SSW,200,1.0,6.9,20,0.00,CLR,,0.00,WeatherDisplay:10.37,2013-02-17 22:14:00,
2013-02-17 14:19:00,70.9,29.0,29.81,West,265,1.7,4.0,21,0.00,CLR,,0.00,WeatherDisplay:10.37,2013-02-17 22:19:00,
2013-02-17 14:24:00,70.9,30.1,29.81,SSE,159,0.0,2.0,22,0.00,CLR,,0.00,WeatherDisplay:10.37,2013-02-17 22:24:00,
2013-02-17 14:29:00,70.6,31.0,29.81,SSW,207,0.4,4.6,23,0.00,CLR,,0.00,WeatherDisplay:10.37,2013-02-17 22:29:00,
2013-02-17 14:34:00,70.9,29.0,29.81,SSW,194,2.0,4.0,21,0.00,CLR,,0.00,WeatherDisplay:10.37,2013-02-17 22:34:00,
2013-02-17 14:39:00,71.1,30.3,29.81,SSE,149,1.6,3.5,22,0.00,CLR,,0.00,WeatherDisplay:10.37,2013-02-17 22:39:00,
2013-02-17 14:44:00,70.8,31.1,29.82,SW,222,1.7,6.0,23,0.00,CLR,,0.00,WeatherDisplay:10.37,2013-02-17 22:44:00,
2013-02-17 14:49:00,70.6,31.0,29.82,SSW,204,3.2,9.2,23,0.00,CLR,,0.00,WeatherDisplay:10.37,2013-02-17 22:49:00,
2013-02-17 14:54:00,70.4,29.7,29.82,South,177,1.0,3.5,22,0.00,CLR,,0.00,WeatherDisplay:10.37,2013-02-17 22:54:00,
2013-02-17 14:59:00,70.4,29.7,29.82,SW,221,2.8,4.6,22,0.00,CLR,,0.00,WeatherDisplay:10.37,2013-02-17 22:59:00,
2013-02-17 15:04:00,70.8,31.1,29.82,SSW,213,0.3,2.3,23,0.00,CLR,,0.00,WeatherDisplay:10.37,2013-02-17 23:04:00,
2013-02-17 15:09:00,70.8,31.1,29.82,SE,139,0.7,4.0,23,0.00,CLR,,0.00,WeatherDisplay:10.37,2013-02-17 23:09:00,
2013-02-17 15:14:00,70.4,31.9,29.82,SW,221,2.9,7.0,24,0.00,CLR,,0.00,WeatherDisplay:10.37,2013-02-17 23:14:00,
2013-02-17 15:19:00,69.4,31.0,29.83,SSW,202,4.5,11.5,24,0.00,CLR,,0.00,WeatherDisplay:10.37,2013-02-17 23:19:00,
2013-02-17 15:24:00,67.9,32.7,29.83,SSW,209,2.4,7.0,27,0.00,CLR,,0.00,WeatherDisplay:10.37,2013-02-17 23:24:00,
2013-02-17 15:29:00,67.8,32.6,29.83,WSW,238,1.7,4.0,27,0.00,CLR,,0.00,WeatherDisplay:10.37,2013-02-17 23:29:00,
2013-02-17 15:34:00,68.1,32.8,29.83,SSW,195,3.2,7.0,27,0.00,CLR,,0.00,WeatherDisplay:10.37,2013-02-17 23:34:00,
2013-02-17 15:39:00,67.8,32.6,29.83,SSW,197,3.8,12.0,27,0.00,CLR,,0.00,WeatherDisplay:10.37,2013-02-17 23:39:00,
2013-02-17 15:44:00,67.6,31.5,29.83,South,178,1.7,6.0,26,0.00,CLR,,0.00,WeatherDisplay:10.37,2013-02-17 23:44:00,
2013-02-17 15:49:00,67.4,32.2,29.83,SSW,202,0.8,11.0,27,0.00,CLR,,0.00,WeatherDisplay:10.37,2013-02-17 23:49:00,
2013-02-17 15:54:00,67.1,32.9,29.84,South,188,3.4,14.0,28,0.00,CLR,,0.00,WeatherDisplay:10.37,2013-02-17 23:54:00,
2013-02-17 15:59:00,66.6,31.5,29.84,South,179,6.0,13.0,27,0.00,CLR,,0.00,WeatherDisplay:10.37,2013-02-17 23:59:00,
2013-02-17 16:04:00,65.6,29.8,29.84,SSW,212,6.8,11.5,26,0.00,CLR,,0.00,WeatherDisplay:10.37,2013-02-18 00:04:00,
2013-02-17 16:09:00,64.8,29.1,29.84,SSW,205,2.9,8.1,26,0.00,CLR,,0.00,WeatherDisplay:10.37,2013-02-18 00:09:00,
2013-02-17 16:14:00,64.3,29.6,29.84,SW,214,1.9,5.8,27,0.00,CLR,,0.00,WeatherDisplay:10.37,2013-02-18 00:14:00,
2013-02-17 16:19:00,64.0,30.2,29.84,SW,236,1.4,9.2,28,0.00,CLR,,0.00,WeatherDisplay:10.37,2013-02-18 00:19:00,
2013-02-17 16:24:00,63.5,27.0,29.85,SW,232,4.5,12.0,25,0.00,CLR,,0.00,WeatherDisplay:10.37,2013-02-18 00:24:00,
2013-02-17 16:29:00,63.1,28.5,29.84,SW,217,2.6,10.0,27,0.00,CLR,,0.00,WeatherDisplay:10.37,2013-02-18 00:29:00,
2013-02-17 16:34:00,62.7,29.1,29.85,SSW,210,2.7,9.2,28,0.00,CLR,,0.00,WeatherDisplay:10.37,2013-02-18 00:34:00,
2013-02-17 16:39:00,62.6,30.7,29.85,SW,221,1.3,5.8,30,0.00,CLR,,0.00,WeatherDisplay:10.37,2013-02-18 00:39:00,
2013-02-17 16:44:00,62.3,32.0,29.86,SSW,212,1.2,5.8,32,0.00,CLR,,0.00,WeatherDisplay:10.37,2013-02-18 00:44:00,
2013-02-17 16:49:00,62.0,33.3,29.86,WSW,240,4.2,9.0,34,0.00,CLR,,0.00,WeatherDisplay:10.37,2013-02-18 00:49:00,
2013-02-17 16:54:00,61.6,35.1,29.86,SW,224,0.2,9.2,37,0.00,CLR,,0.00,WeatherDisplay:10.37,2013-02-18 00:54:00,
2013-02-17 16:59:00,61.3,36.1,29.86,SSW,200,0.5,4.6,39,0.00,CLR,,0.00,WeatherDisplay:10.37,2013-02-18 00:59:00,
2013-02-17 17:04:00,61.0,37.1,29.86,SSW,199,3.5,9.0,41,0.00,CLR,,0.00,WeatherDisplay:10.37,2013-02-18 01:04:00,
2013-02-17 17:09:00,60.7,38.6,29.86,WSW,237,1.1,4.0,44,0.00,CLR,,0.00,WeatherDisplay:10.37,2013-02-18 01:09:00,
2013-02-17 17:14:00,60.4,39.5,29.87,SSW,210,1.5,5.0,46,0.00,CLR,,0.00,WeatherDisplay:10.37,2013-02-18 01:14:00,
2013-02-17 17:19:00,59.9,40.1,29.87,SSW,211,3.3,7.0,48,0.00,CLR,,0.00,WeatherDisplay:10.37,2013-02-18 01:19:00,
2013-02-17 17:24:00,59.6,39.9,29.87,SSW,205,0.7,3.0,48,0.00,CLR,,0.00,WeatherDisplay:10.37,2013-02-18 01:24:00,
2013-02-17 17:29:00,59.2,40.6,29.88,SSW,203,0.6,4.6,50,0.00,CLR,,0.00,WeatherDisplay:10.37,2013-02-18 01:29:00,
2013-02-17 17:34:00,58.7,41.1,29.88,SSW,203,0.0,0.0,52,0.00,CLR,,0.00,WeatherDisplay:10.37,2013-02-18 01:34:00,
2013-02-17 17:39:00,58.3,41.2,29.89,SSW,203,0.1,2.0,53,0.00,CLR,,0.00,WeatherDisplay:10.37,2013-02-18 01:39:00,
2013-02-17 17:44:00,58.0,41.4,29.89,SSW,203,0.0,0.0,54,0.00,CLR,,0.00,WeatherDisplay:10.37,2013-02-18 01:44:00,
2013-02-17 17:49:00,57.5,41.4,29.89,SSW,203,0.0,0.0,55,0.00,CLR,,0.00,WeatherDisplay:10.37,2013-02-18 01:49:00,
2013-02-17 17:54:00,57.2,42.1,29.90,SSE,164,0.8,3.0,57,0.00,CLR,,0.00,WeatherDisplay:10.37,2013-02-18 01:54:00,
2013-02-17 17:59:00,56.9,43.2,29.90,SSE,165,0.0,0.0,60,0.00,CLR,,0.00,WeatherDisplay:10.37,2013-02-18 01:59:00,
2013-02-17 18:04:00,56.6,43.3,29.90,South,172,0.4,1.2,61,0.00,CLR,,0.00,WeatherDisplay:10.37,2013-02-18 02:04:00,
2013-02-17 18:09:00,56.3,43.4,29.90,South,172,0.0,0.0,62,0.00,CLR,,0.00,WeatherDisplay:10.37,2013-02-18 02:09:00,
2013-02-17 18:14:00,55.7,43.7,29.90,South,174,0.0,0.0,64,0.00,CLR,,0.00,WeatherDisplay:10.37,2013-02-18 02:14:00,
2013-02-17 18:19:00,55.1,43.9,29.91,South,174,0.7,2.0,66,0.00,CLR,,0.00,WeatherDisplay:10.37,2013-02-18 02:19:00,
2013-02-17 18:24:00,54.7,44.0,29.91,South,174,0.0,0.0,67,0.00,CLR,,0.00,WeatherDisplay:10.37,2013-02-18 02:24:00,
2013-02-17 18:29:00,54.2,43.9,29.91,South,174,0.0,0.0,68,0.00,CLR,,0.00,WeatherDisplay:10.37,2013-02-18 02:29:00,
2013-02-17 18:34:00,53.9,44.0,29.91,South,174,0.0,0.0,69,0.00,CLR,,0.00,WeatherDisplay:10.37,2013-02-18 02:34:00,
2013-02-17 18:39:00,53.5,43.6,29.91,South,174,0.0,0.0,69,0.00,CLR,,0.00,WeatherDisplay:10.37,2013-02-18 02:39:00,
2013-02-17 18:44:00,53.2,44.0,29.91,South,174,0.0,0.0,71,0.00,CLR,,0.00,WeatherDisplay:10.37,2013-02-18 02:44:00,
2013-02-17 18:49:00,52.8,44.0,29.91,South,174,0.0,0.0,72,0.00,CLR,,0.00,WeatherDisplay:10.37,2013-02-18 02:49:00,
2013-02-17 18:54:00,52.6,43.8,29.91,South,174,0.0,0.0,72,0.00,CLR,,0.00,WeatherDisplay:10.37,2013-02-18 02:54:00,
2013-02-17 18:59:00,52.3,43.9,29.91,South,190,0.9,3.5,73,0.00,CLR,,0.00,WeatherDisplay:10.37,2013-02-18 02:59:00,
2013-02-17 19:04:00,52.2,44.2,29.89,SSW,196,1.6,4.6,74,0.00,CLR,,0.00,WeatherDisplay:10.37,2013-02-18 03:04:00,
2013-02-17 19:09:00,51.9,44.2,29.89,SSW,196,0.3,2.3,75,0.00,CLR,,0.00,WeatherDisplay:10.37,2013-02-18 03:09:00,
2013-02-17 19:15:00,51.7,44.0,29.89,SSW,198,0.0,3.5,75,0.00,CLR,,0.00,WeatherDisplay:10.37,2013-02-18 03:15:00,
2013-02-17 19:20:00,51.4,43.7,29.89,SSW,207,0.5,3.0,75,0.00,CLR,,0.00,WeatherDisplay:10.37,2013-02-18 03:20:00,
2013-02-17 19:25:00,51.3,44.0,29.89,SSW,203,1.0,4.6,76,0.00,CLR,,0.00,WeatherDisplay:10.37,2013-02-18 03:25:00,
2013-02-17 19:30:00,51.0,44.0,29.90,SSW,204,0.0,1.2,77,0.00,CLR,,0.00,WeatherDisplay:10.37,2013-02-18 03:30:00,
2013-02-17 19:35:00,50.8,43.8,29.90,SSW,204,0.0,0.0,77,0.00,CLR,,0.00,WeatherDisplay:10.37,2013-02-18 03:35:00,
2013-02-17 19:40:00,50.7,43.8,29.90,SSW,204,0.3,2.3,77,0.00,CLR,,0.00,WeatherDisplay:10.37,2013-02-18 03:40:00,
2013-02-17 19:45:00,50.4,43.5,29.90,SSW,204,0.0,0.0,77,0.00,CLR,,0.00,WeatherDisplay:10.37,2013-02-18 03:45:00,
2013-02-17 19:50:00,50.1,43.5,29.91,SSW,204,0.1,1.2,78,0.00,CLR,,0.00,WeatherDisplay:10.37,2013-02-18 03:50:00,
2013-02-17 19:55:00,49.8,43.2,29.91,SSW,204,0.0,0.0,78,0.00,CLR,,0.00,WeatherDisplay:10.37,2013-02-18 03:55:00,
2013-02-17 20:00:00,49.5,42.9,29.91,SSW,204,0.0,0.0,78,0.00,CLR,,0.00,WeatherDisplay:10.37,2013-02-18 04:00:00,
2013-02-17 20:05:00,49.4,43.2,29.89,SSW,204,0.0,0.0,79,0.00,CLR,,0.00,WeatherDisplay:10.37,2013-02-18 04:05:00,
2013-02-17 20:10:00,49.2,43.0,29.89,SSW,204,0.0,0.0,79,0.00,CLR,,0.00,WeatherDisplay:10.37,2013-02-18 04:10:00,
2013-02-17 20:15:00,49.1,43.2,29.89,SSW,204,0.5,3.5,80,0.00,CLR,,0.00,WeatherDisplay:10.37,2013-02-18 04:15:00,
2013-02-17 20:20:00,48.9,43.0,29.89,SSW,204,0.0,0.0,80,0.00,CLR,,0.00,WeatherDisplay:10.37,2013-02-18 04:20:00,
2013-02-17 20:25:00,48.8,43.2,29.90,SSW,204,0.0,0.0,81,0.00,CLR,,0.00,WeatherDisplay:10.37,2013-02-18 04:25:00,
2013-02-17 20:30:00,48.6,43.0,29.90,SSW,204,0.0,0.0,81,0.00,CLR,,0.00,WeatherDisplay:10.37,2013-02-18 04:30:00,
2013-02-17 20:35:00,48.5,42.9,29.89,SSW,204,0.0,0.0,81,0.00,CLR,,0.00,WeatherDisplay:10.37,2013-02-18 04:35:00,
2013-02-17 20:40:00,48.3,42.7,29.90,SSW,204,0.0,0.0,81,0.00,CLR,,0.00,WeatherDisplay:10.37,2013-02-18 04:40:00,
2013-02-17 20:45:00,48.3,43.1,29.90,SSW,204,0.0,0.0,82,0.00,CLR,,0.00,WeatherDisplay:10.37,2013-02-18 04:45:00,
2013-02-17 20:50:00,48.3,43.1,29.90,SSW,204,0.0,0.0,82,0.00,CLR,,0.00,WeatherDisplay:10.37,2013-02-18 04:50:00,
2013-02-17 20:55:00,48.2,43.0,29.91,SSW,204,0.2,2.3,82,0.00,CLR,,0.00,WeatherDisplay:10.37,2013-02-18 04:55:00,
2013-02-17 21:00:00,48.2,43.3,29.91,SSW,204,0.1,2.3,83,0.00,CLR,,0.00,WeatherDisplay:10.37,2013-02-18 05:00:00,
2013-02-17 21:01:00,48.0,43.1,29.91,SSW,204,0.0,1.2,83,0.00,CLR,,0.00,WeatherDisplay:10.37,2013-02-18 05:01:00,
2013-02-17 21:06:00,48.0,43.1,29.91,SSW,204,0.0,1.2,83,0.00,CLR,,0.00,WeatherDisplay:10.37,2013-02-18 05:06:00,
2013-02-17 21:11:00,47.9,43.0,29.91,SSW,204,0.0,0.0,83,0.00,CLR,,0.00,WeatherDisplay:10.37,2013-02-18 05:11:00,
2013-02-17 21:16:00,47.9,43.0,29.91,SSW,204,0.0,0.0,83,0.00,CLR,,0.00,WeatherDisplay:10.37,2013-02-18 05:16:00,
2013-02-17 21:21:00,47.7,43.1,29.92,SSW,204,0.3,3.5,84,0.00,CLR,,0.00,WeatherDisplay:10.37,2013-02-18 05:21:00,
2013-02-17 21:26:00,47.7,43.1,29.92,SSW,204,0.0,0.0,84,0.00,CLR,,0.00,WeatherDisplay:10.37,2013-02-18 05:26:00,
2013-02-17 21:31:00,47.6,43.0,29.92,SSW,204,0.3,1.2,84,0.00,CLR,,0.00,WeatherDisplay:10.37,2013-02-18 05:31:00,
2013-02-17 21:36:00,47.4,42.8,29.92,SSW,204,0.0,0.0,84,0.00,CLR,,0.00,WeatherDisplay:10.37,2013-02-18 05:36:00,
2013-02-17 21:41:00,47.4,42.8,29.92,SSW,204,0.0,0.0,84,0.00,CLR,,0.00,WeatherDisplay:10.37,2013-02-18 05:41:00,
2013-02-17 21:46:00,47.4,43.1,29.92,SSW,204,0.0,1.2,85,0.00,CLR,,0.00,WeatherDisplay:10.37,2013-02-18 05:46:00,
2013-02-17 21:51:00,47.3,43.0,29.92,SSW,204,0.0,0.0,85,0.00,CLR,,0.00,WeatherDisplay:10.37,2013-02-18 05:51:00,
2013-02-17 21:56:00,47.1,42.8,29.93,SSW,204,0.0,0.0,85,0.00,CLR,,0.00,WeatherDisplay:10.37,2013-02-18 05:56:00,
2013-02-17 22:01:00,47.0,42.7,29.93,SSW,204,0.0,0.0,85,0.00,CLR,,0.00,WeatherDisplay:10.37,2013-02-18 06:01:00,
2013-02-17 22:06:00,47.0,42.7,29.92,SSW,204,0.0,0.0,85,0.00,CLR,,0.00,WeatherDisplay:10.37,2013-02-18 06:06:00,
2013-02-17 22:11:00,46.8,42.5,29.92,SSW,204,0.0,0.0,85,0.00,CLR,,0.00,WeatherDisplay:10.37,2013-02-18 06:11:00,
2013-02-17 22:16:00,46.7,42.4,29.92,SSW,204,0.0,0.0,85,0.00,CLR,,0.00,WeatherDisplay:10.37,2013-02-18 06:16:00,
2013-02-17 22:21:00,46.7,42.4,29.92,SSW,204,0.0,0.0,85,0.00,CLR,,0.00,WeatherDisplay:10.37,2013-02-18 06:21:00,
2013-02-17 22:26:00,46.5,42.2,29.92,SSW,204,0.0,0.0,85,0.00,CLR,,0.00,WeatherDisplay:10.37,2013-02-18 06:26:00,
2013-02-17 22:31:00,46.5,42.2,29.92,SSW,204,0.0,0.0,85,0.00,CLR,,0.00,WeatherDisplay:10.37,2013-02-18 06:31:00,
2013-02-17 22:36:00,46.4,42.4,29.92,SSW,204,0.0,0.0,86,0.00,CLR,,0.00,WeatherDisplay:10.37,2013-02-18 06:36:00,
2013-02-17 22:41:00,46.4,42.4,29.92,SSW,204,0.0,0.0,86,0.00,CLR,,0.00,WeatherDisplay:10.37,2013-02-18 06:41:00,
2013-02-17 22:46:00,46.2,42.2,29.92,SSW,204,0.0,0.0,86,0.00,CLR,,0.00,WeatherDisplay:10.37,2013-02-18 06:46:00,
2013-02-17 22:51:00,46.2,42.2,29.92,SSW,204,0.1,2.3,86,0.00,CLR,,0.00,WeatherDisplay:10.37,2013-02-18 06:51:00,
2013-02-17 22:56:00,46.2,42.2,29.92,SSW,204,0.0,1.2,86,0.00,CLR,,0.00,WeatherDisplay:10.37,2013-02-18 06:56:00,
2013-02-17 23:01:00,46.1,42.1,29.92,SSW,204,0.0,0.0,86,0.00,CLR,,0.00,WeatherDisplay:10.37,2013-02-18 07:01:00,
2013-02-17 23:06:00,46.1,42.1,29.92,SSW,204,0.0,0.0,86,0.00,CLR,,0.00,WeatherDisplay:10.37,2013-02-18 07:06:00,
2013-02-17 23:11:00,46.1,42.1,29.92,SSW,204,0.0,0.0,86,0.00,CLR,,0.00,WeatherDisplay:10.37,2013-02-18 07:11:00,
2013-02-17 23:16:00,46.2,42.2,29.92,SSW,204,0.0,0.0,86,0.00,CLR,,0.00,WeatherDisplay:10.37,2013-02-18 07:16:00,
2013-02-17 23:21:00,46.2,42.2,29.92,SSW,204,0.0,0.0,86,0.00,CLR,,0.00,WeatherDisplay:10.37,2013-02-18 07:21:00,
2013-02-17 23:26:00,46.2,42.2,29.92,SSW,204,0.0,0.0,86,0.00,CLR,,0.00,WeatherDisplay:10.37,2013-02-18 07:26:00,
2013-02-17 23:31:00,46.2,42.2,29.92,SSW,204,0.0,0.0,86,0.00,CLR,,0.00,WeatherDisplay:10.37,2013-02-18 07:31:00,
2013-02-17 23:36:00,46.2,42.5,29.92,SSW,204,0.2,1.0,87,0.00,CLR,,0.00,WeatherDisplay:10.37,2013-02-18 07:36:00,
2013-02-17 23:41:00,46.4,42.7,29.92,SSW,204,0.0,0.0,87,0.00,CLR,,0.00,WeatherDisplay:10.37,2013-02-18 07:41:00,
2013-02-17 23:46:00,46.4,42.7,29.92,SSW,204,0.0,0.0,87,0.00,CLR,,0.00,WeatherDisplay:10.37,2013-02-18 07:46:00,
2013-02-17 23:51:00,46.4,42.7,29.92,SSW,204,0.0,0.0,87,0.00,CLR,,0.00,WeatherDisplay:10.37,2013-02-18 07:51:00,
2013-02-17 23:56:00,46.4,42.7,29.92,SSW,204,0.0,0.0,87,0.00,CLR,,0.00,WeatherDisplay:10.37,2013-02-18 07:56:00,